RYR41CG EGGD-LIME

Flight info

Callsign RYR41CG
Flight time 1h 50m
Altitude 37000
Route YORQI DCT NUCHU L607 ALHAD UN859 VAPID L18 MID UL612 VEULE DCT TEPRI UN491 POGZI DCT GELTA DCT LUVAL DCT SHARA DCT DEVDI DCT RIPUS DCT GERSA DCT SOSON DCT ODINA
Aircraft B38M/M-SDE1FGHILORVWXY/HB1

Departure

Time 2026-04-30 08:12
Airport Bristol Airport (EGGD)

Arrival

Time 2026-04-30 10:02
Airport Il Caravaggio International Airport (LIME)
Time Latitude Longitude Altitude Speed Heading
2026-04-30 07:46 51.38537 -2.71480 624 ft 0 kts 356°
2026-04-30 08:03 51.38515 -2.71477 620 ft 4 kts 356°
2026-04-30 08:04 51.38488 -2.71475 622 ft 4 kts 356°
2026-04-30 08:04 51.38466 -2.71472 625 ft 4 kts 348°
2026-04-30 08:04 51.38448 -2.71454 615 ft 4 kts 287°
2026-04-30 08:04 51.38447 -2.71418 624 ft 2 kts 266°
2026-04-30 08:05 51.38447 -2.71415 622 ft 0 kts 266°
2026-04-30 08:07 51.38447 -2.71430 616 ft 3 kts 266°
2026-04-30 08:07 51.38443 -2.71512 623 ft 14 kts 266°
2026-04-30 08:07 51.38435 -2.71709 608 ft 21 kts 267°
2026-04-30 08:07 51.38431 -2.71942 608 ft 19 kts 274°
2026-04-30 08:08 51.38427 -2.72159 613 ft 16 kts 266°
2026-04-30 08:08 51.38420 -2.72339 618 ft 16 kts 267°
2026-04-30 08:08 51.38413 -2.72515 618 ft 16 kts 265°
2026-04-30 08:08 51.38406 -2.72719 616 ft 20 kts 266°
2026-04-30 08:09 51.38397 -2.72933 607 ft 20 kts 266°
2026-04-30 08:09 51.38390 -2.73109 618 ft 10 kts 266°
2026-04-30 08:09 51.38385 -2.73211 618 ft 8 kts 265°
2026-04-30 08:09 51.38373 -2.73283 619 ft 6 kts 238°
2026-04-30 08:10 51.38355 -2.73319 624 ft 3 kts 225°
2026-04-30 08:10 51.38329 -2.73341 622 ft 7 kts 198°
2026-04-30 08:10 51.38267 -2.73340 628 ft 8 kts 174°
2026-04-30 08:10 51.38217 -2.73317 629 ft 6 kts 126°
2026-04-30 08:11 51.38214 -2.73282 629 ft 0 kts 85°
2026-04-30 08:11 51.38234 -2.72801 632 ft 86 kts 86°
2026-04-30 08:11 51.38288 -2.71405 625 ft 160 kts 86°
2026-04-30 08:12 51.38393 -2.69482 1294 ft 179 kts 86°
2026-04-30 08:12 51.38460 -2.67450 2334 ft 190 kts 88°
2026-04-30 08:12 51.38494 -2.65264 3205 ft 196 kts 90°
2026-04-30 08:12 51.38539 -2.63050 4151 ft 206 kts 91°
2026-04-30 08:13 51.38588 -2.60711 4994 ft 211 kts 92°
2026-04-30 08:13 51.38637 -2.58384 5891 ft 219 kts 90°
2026-04-30 08:13 51.39073 -2.55989 5812 ft 232 kts 66°
2026-04-30 08:13 51.40144 -2.53956 5898 ft 247 kts 45°
2026-04-30 08:14 51.41697 -2.52645 5985 ft 260 kts 24°
2026-04-30 08:14 51.43355 -2.51529 6580 ft 254 kts 37°
2026-04-30 08:14 51.44851 -2.50067 7622 ft 255 kts 39°
2026-04-30 08:14 51.46378 -2.48501 8554 ft 262 kts 38°
2026-04-30 08:15 51.47926 -2.46938 9489 ft 266 kts 38°
2026-04-30 08:15 51.49507 -2.45351 10401 ft 270 kts 39°
2026-04-30 08:15 51.50841 -2.43315 11252 ft 262 kts 63°
2026-04-30 08:15 51.51532 -2.40572 11949 ft 267 kts 84°
2026-04-30 08:16 51.51595 -2.37516 12413 ft 283 kts 96°
2026-04-30 08:16 51.51474 -2.34257 12834 ft 303 kts 96°
2026-04-30 08:16 51.51298 -2.30764 13219 ft 324 kts 97°
2026-04-30 08:16 51.51081 -2.27074 13586 ft 342 kts 98°
2026-04-30 08:17 51.50837 -2.23202 14080 ft 353 kts 98°
2026-04-30 08:17 51.50576 -2.19262 14843 ft 356 kts 98°
2026-04-30 08:17 51.50305 -2.15295 15586 ft 360 kts 98°
2026-04-30 08:17 51.50027 -2.11281 16296 ft 364 kts 98°
2026-04-30 08:18 51.49744 -2.07228 16986 ft 367 kts 99°
2026-04-30 08:18 51.49456 -2.03146 17640 ft 370 kts 99°
2026-04-30 08:18 51.49163 -1.99023 18307 ft 373 kts 99°
2026-04-30 08:18 51.48867 -1.94852 18919 ft 377 kts 99°
2026-04-30 08:19 51.48567 -1.90667 19523 ft 380 kts 99°
2026-04-30 08:19 51.48262 -1.86434 20118 ft 384 kts 99°
2026-04-30 08:19 51.47953 -1.82157 20672 ft 387 kts 99°
2026-04-30 08:19 51.47640 -1.77850 21226 ft 391 kts 99°
2026-04-30 08:20 51.47322 -1.73497 21748 ft 394 kts 99°
2026-04-30 08:20 51.47000 -1.69114 22268 ft 397 kts 99°
2026-04-30 08:20 51.46464 -1.64773 22762 ft 399 kts 104°
2026-04-30 08:20 51.45869 -1.60417 23254 ft 402 kts 104°
2026-04-30 08:21 51.45284 -1.56028 23765 ft 404 kts 104°
2026-04-30 08:21 51.44700 -1.51592 24218 ft 408 kts 104°
2026-04-30 08:21 51.44104 -1.47141 24698 ft 410 kts 104°
2026-04-30 08:21 51.43484 -1.42662 25161 ft 413 kts 104°
2026-04-30 08:22 51.42862 -1.38158 25595 ft 415 kts 104°
2026-04-30 08:22 51.42234 -1.33619 26021 ft 418 kts 104°
2026-04-30 08:22 51.41602 -1.29061 26444 ft 420 kts 104°
2026-04-30 08:22 51.40964 -1.24479 26852 ft 423 kts 104°
2026-04-30 08:23 51.40074 -1.20002 27215 ft 423 kts 117°
2026-04-30 08:23 51.38437 -1.16093 27584 ft 425 kts 132°
2026-04-30 08:23 51.36169 -1.13050 27935 ft 429 kts 147°
2026-04-30 08:23 51.33535 -1.10780 28294 ft 432 kts 151°
2026-04-30 08:24 51.30823 -1.08631 28590 ft 436 kts 152°
2026-04-30 08:24 51.28079 -1.06537 28970 ft 438 kts 152°
2026-04-30 08:24 51.25542 -1.03894 29242 ft 438 kts 137°
2026-04-30 08:24 51.23529 -1.00256 29590 ft 438 kts 128°
2026-04-30 08:25 51.21666 -0.96474 29952 ft 439 kts 128°
2026-04-30 08:25 51.19770 -0.92570 30345 ft 440 kts 127°
2026-04-30 08:25 51.17913 -0.88702 30768 ft 439 kts 127°
2026-04-30 08:25 51.16088 -0.84876 31187 ft 439 kts 127°
2026-04-30 08:26 51.14842 -0.82261 31447 ft 439 kts 127°
2026-04-30 08:26 51.12376 -0.77091 31991 ft 438 kts 127°
2026-04-30 08:26 51.10561 -0.73289 32383 ft 437 kts 127°
2026-04-30 08:26 51.08717 -0.69434 32764 ft 437 kts 127°
2026-04-30 08:27 51.06881 -0.65598 33163 ft 436 kts 127°
2026-04-30 08:27 51.04807 -0.62100 33529 ft 436 kts 141°
2026-04-30 08:27 51.02318 -0.59348 33880 ft 436 kts 143°
2026-04-30 08:27 51.00630 -0.57486 34086 ft 437 kts 144°
2026-04-30 08:28 50.98125 -0.54761 34419 ft 437 kts 144°
2026-04-30 08:28 50.95600 -0.52047 34765 ft 437 kts 144°
2026-04-30 08:28 50.93084 -0.49363 35107 ft 436 kts 144°
2026-04-30 08:28 50.90597 -0.46717 35437 ft 436 kts 145°
2026-04-30 08:29 50.88083 -0.44047 35760 ft 435 kts 145°
2026-04-30 08:29 50.85565 -0.41377 36070 ft 435 kts 145°
2026-04-30 08:29 50.83059 -0.38724 36342 ft 434 kts 145°
2026-04-30 08:29 50.80544 -0.36064 36591 ft 435 kts 145°
2026-04-30 08:30 50.78032 -0.33410 36868 ft 433 kts 145°
2026-04-30 08:30 50.75534 -0.30775 37163 ft 431 kts 145°
2026-04-30 08:30 50.73051 -0.28159 37229 ft 427 kts 146°
2026-04-30 08:31 50.68136 -0.22991 37216 ft 423 kts 146°
2026-04-30 08:31 50.63231 -0.17848 37212 ft 424 kts 146°
2026-04-30 08:32 50.58313 -0.12703 37211 ft 424 kts 146°
2026-04-30 08:32 50.53398 -0.07575 37213 ft 424 kts 146°
2026-04-30 08:33 50.48480 -0.02457 37210 ft 424 kts 146°
2026-04-30 08:33 50.43563 0.02647 37208 ft 424 kts 145°
2026-04-30 08:34 50.38622 0.07763 37210 ft 426 kts 145°
2026-04-30 08:34 50.33671 0.12877 37212 ft 427 kts 145°
2026-04-30 08:35 50.28710 0.17989 37211 ft 427 kts 145°
2026-04-30 08:35 50.23752 0.23083 37204 ft 427 kts 145°
2026-04-30 08:36 50.18791 0.28185 37201 ft 427 kts 145°
2026-04-30 08:36 50.13824 0.33292 37201 ft 427 kts 145°
2026-04-30 08:37 50.08899 0.38343 37192 ft 427 kts 145°
2026-04-30 08:37 50.03938 0.43418 37195 ft 427 kts 145°
2026-04-30 08:38 49.98971 0.48486 37185 ft 427 kts 145°
2026-04-30 08:38 49.93997 0.53549 37188 ft 428 kts 145°
2026-04-30 08:39 49.89003 0.58620 37182 ft 429 kts 145°
2026-04-30 08:39 49.84377 0.64332 37199 ft 424 kts 130°
2026-04-30 08:40 49.80346 0.71082 37170 ft 427 kts 132°
2026-04-30 08:40 49.76325 0.77858 37176 ft 428 kts 131°
2026-04-30 08:41 49.72300 0.84656 37169 ft 429 kts 131°
2026-04-30 08:41 49.68266 0.91454 37169 ft 429 kts 131°
2026-04-30 08:42 49.64226 0.98245 37181 ft 430 kts 131°
2026-04-30 08:42 49.60180 1.05027 37185 ft 430 kts 131°
2026-04-30 08:43 49.56120 1.11815 37178 ft 430 kts 131°
2026-04-30 08:43 49.52062 1.18582 37193 ft 430 kts 131°
2026-04-30 08:44 49.47999 1.25339 37191 ft 431 kts 132°
2026-04-30 08:44 49.43925 1.32098 37180 ft 431 kts 132°
2026-04-30 08:45 49.39843 1.38851 37185 ft 431 kts 132°
2026-04-30 08:45 49.35759 1.45590 37175 ft 432 kts 132°
2026-04-30 08:46 49.31670 1.52319 37179 ft 432 kts 132°
2026-04-30 08:46 49.27569 1.59052 37178 ft 432 kts 132°
2026-04-30 08:47 49.23463 1.65774 37184 ft 432 kts 132°
2026-04-30 08:47 49.19349 1.72491 37189 ft 432 kts 132°
2026-04-30 08:48 49.15233 1.79194 37194 ft 433 kts 132°
2026-04-30 08:48 49.11100 1.85909 37189 ft 434 kts 132°
2026-04-30 08:49 49.06964 1.92609 37188 ft 434 kts 132°
2026-04-30 08:49 49.02814 1.99316 37175 ft 435 kts 132°
2026-04-30 08:50 48.98650 2.06027 37174 ft 436 kts 132°
2026-04-30 08:50 48.94472 2.12744 37175 ft 438 kts 132°
2026-04-30 08:51 48.90281 2.19464 37174 ft 439 kts 132°
2026-04-30 08:51 48.86077 2.26187 37176 ft 439 kts 132°
2026-04-30 08:52 48.81869 2.32899 37191 ft 440 kts 132°
2026-04-30 08:52 48.77652 2.39608 37182 ft 439 kts 132°
2026-04-30 08:53 48.73424 2.46317 37178 ft 440 kts 133°
2026-04-30 08:53 48.69187 2.53023 37179 ft 440 kts 133°
2026-04-30 08:54 48.64949 2.59717 37191 ft 441 kts 133°
2026-04-30 08:54 48.60702 2.66409 37174 ft 441 kts 133°
2026-04-30 08:55 48.56731 2.73420 37167 ft 438 kts 117°
2026-04-30 08:55 48.55619 2.77664 37201 ft 435 kts 102°
2026-04-30 08:55 48.55176 2.82183 37186 ft 436 kts 94°
2026-04-30 08:56 48.54734 2.91321 37179 ft 437 kts 93°
2026-04-30 08:56 48.54389 3.00465 37187 ft 436 kts 92°
2026-04-30 08:57 48.54072 3.09600 37178 ft 436 kts 92°
2026-04-30 08:57 48.53751 3.18726 37179 ft 436 kts 92°
2026-04-30 08:58 48.53423 3.27859 37188 ft 436 kts 92°
2026-04-30 08:58 48.53088 3.36973 37187 ft 435 kts 92°
2026-04-30 08:59 48.52745 3.46096 37188 ft 435 kts 92°
2026-04-30 08:59 48.52398 3.55159 37181 ft 435 kts 92°
2026-04-30 09:00 48.52039 3.64340 37193 ft 436 kts 92°
2026-04-30 09:00 48.51677 3.73407 37198 ft 436 kts 92°
2026-04-30 09:01 48.51304 3.82548 37193 ft 436 kts 92°
2026-04-30 09:01 48.50926 3.91670 37196 ft 436 kts 92°
2026-04-30 09:02 48.49918 4.05263 37202 ft 436 kts 105°
2026-04-30 09:02 48.48313 4.14128 37174 ft 438 kts 103°
2026-04-30 09:03 48.46706 4.22973 37183 ft 438 kts 104°
2026-04-30 09:03 48.45086 4.31818 37196 ft 438 kts 104°
2026-04-30 09:04 48.43460 4.40652 37183 ft 437 kts 104°
2026-04-30 09:04 48.41828 4.49470 37203 ft 438 kts 104°
2026-04-30 09:05 48.40188 4.58290 37202 ft 437 kts 104°
2026-04-30 09:05 48.38542 4.67102 37201 ft 437 kts 104°
2026-04-30 09:06 48.36891 4.75901 37205 ft 437 kts 104°
2026-04-30 09:06 48.35233 4.84695 37203 ft 437 kts 104°
2026-04-30 09:07 48.33567 4.93485 37203 ft 437 kts 104°
2026-04-30 09:07 48.31896 5.02265 37193 ft 437 kts 104°
2026-04-30 09:08 48.30219 5.11046 37182 ft 437 kts 104°
2026-04-30 09:08 48.28486 5.19807 37177 ft 438 kts 104°
2026-04-30 09:09 48.26728 5.28568 37173 ft 439 kts 104°
2026-04-30 09:09 48.24965 5.37323 37179 ft 439 kts 104°
2026-04-30 09:10 48.23189 5.46106 37164 ft 440 kts 104°
2026-04-30 09:10 48.21408 5.54877 37181 ft 440 kts 104°
2026-04-30 09:11 48.19923 5.62156 37200 ft 438 kts 105°
2026-04-30 09:11 48.17850 5.72280 37206 ft 437 kts 105°
2026-04-30 09:12 48.16057 5.80990 37209 ft 438 kts 105°
2026-04-30 09:12 48.14551 5.88280 37220 ft 438 kts 105°
2026-04-30 09:13 48.12743 5.96994 37221 ft 438 kts 105°
2026-04-30 09:13 48.10928 6.05705 37232 ft 439 kts 105°
2026-04-30 09:14 48.09104 6.14420 37227 ft 439 kts 105°
2026-04-30 09:14 48.07279 6.23107 37226 ft 438 kts 105°
2026-04-30 09:15 48.05442 6.31809 37235 ft 438 kts 105°
2026-04-30 09:15 48.03604 6.40481 37226 ft 438 kts 105°
2026-04-30 09:16 48.01756 6.49160 37220 ft 438 kts 105°
2026-04-30 09:16 47.99919 6.57758 37221 ft 438 kts 105°
2026-04-30 09:17 47.98043 6.66485 37218 ft 441 kts 107°
2026-04-30 09:17 47.95735 6.74939 37231 ft 444 kts 110°
2026-04-30 09:18 47.93423 6.83461 37236 ft 444 kts 109°
2026-04-30 09:18 47.91113 6.92007 37239 ft 444 kts 109°
2026-04-30 09:19 47.88802 7.00528 37252 ft 444 kts 109°
2026-04-30 09:19 47.86477 7.09072 37248 ft 445 kts 109°
2026-04-30 09:20 47.84149 7.17595 37249 ft 445 kts 109°
2026-04-30 09:20 47.81810 7.26129 37258 ft 445 kts 109°
2026-04-30 09:21 47.79469 7.34635 37257 ft 444 kts 109°
2026-04-30 09:21 47.77123 7.43130 37257 ft 444 kts 109°
2026-04-30 09:22 47.74774 7.51614 37266 ft 444 kts 109°
2026-04-30 09:22 47.73375 7.55711 37238 ft 447 kts 122°
2026-04-30 09:22 47.71517 7.59427 37275 ft 449 kts 122°
2026-04-30 09:23 47.67858 7.66942 37272 ft 450 kts 123°
2026-04-30 09:23 47.64151 7.74422 37210 ft 448 kts 123°
2026-04-30 09:24 47.60439 7.81873 37270 ft 450 kts 123°
2026-04-30 09:24 47.56715 7.89328 37269 ft 450 kts 123°
2026-04-30 09:25 47.52990 7.96765 37270 ft 450 kts 123°
2026-04-30 09:25 47.49255 8.04202 37266 ft 450 kts 123°
2026-04-30 09:26 47.45512 8.11633 37269 ft 451 kts 123°
2026-04-30 09:26 47.41755 8.19073 37254 ft 452 kts 123°
2026-04-30 09:27 47.37988 8.26512 37267 ft 453 kts 123°
2026-04-30 09:27 47.34204 8.33965 37266 ft 454 kts 123°
2026-04-30 09:28 47.30427 8.41386 37265 ft 454 kts 123°
2026-04-30 09:28 47.25935 8.47945 37262 ft 462 kts 147°
2026-04-30 09:29 47.22969 8.49833 37263 ft 468 kts 163°
2026-04-30 09:29 47.19768 8.50682 37279 ft 471 kts 171°
2026-04-30 09:29 47.13225 8.51821 37264 ft 473 kts 172°
2026-04-30 09:30 47.06668 8.52813 37254 ft 474 kts 173°
2026-04-30 09:30 47.00103 8.53765 37239 ft 474 kts 173°
2026-04-30 09:31 46.93535 8.54711 37254 ft 474 kts 173°
2026-04-30 09:31 46.86965 8.55657 37248 ft 475 kts 173°
2026-04-30 09:32 46.80385 8.56602 37246 ft 475 kts 174°
2026-04-30 09:32 46.73863 8.57534 37237 ft 474 kts 174°
2026-04-30 09:33 46.67304 8.58471 37239 ft 474 kts 174°
2026-04-30 09:33 46.64021 8.58939 37102 ft 473 kts 174°
2026-04-30 09:33 46.60738 8.59407 36849 ft 472 kts 174°
2026-04-30 09:34 46.57469 8.59871 36578 ft 471 kts 174°
2026-04-30 09:34 46.54211 8.60334 36315 ft 471 kts 174°
2026-04-30 09:34 46.50937 8.60798 36061 ft 474 kts 174°
2026-04-30 09:34 46.47653 8.61263 35789 ft 477 kts 174°
2026-04-30 09:35 46.44332 8.61732 35535 ft 479 kts 174°
2026-04-30 09:35 46.41008 8.62201 35240 ft 480 kts 174°
2026-04-30 09:35 46.37687 8.62670 35019 ft 480 kts 174°
2026-04-30 09:35 46.34374 8.63137 34744 ft 479 kts 173°
2026-04-30 09:36 46.31057 8.63604 34477 ft 479 kts 173°
2026-04-30 09:36 46.27728 8.64072 34223 ft 479 kts 173°
2026-04-30 09:36 46.24410 8.64537 33996 ft 480 kts 173°
2026-04-30 09:36 46.21088 8.65004 33731 ft 480 kts 173°
2026-04-30 09:37 46.17761 8.65473 33482 ft 479 kts 172°
2026-04-30 09:37 46.14523 8.66500 33199 ft 477 kts 158°
2026-04-30 09:37 46.11581 8.68642 32934 ft 473 kts 143°
2026-04-30 09:37 46.09065 8.71657 32676 ft 468 kts 129°
2026-04-30 09:38 46.07118 8.75318 32193 ft 458 kts 120°
2026-04-30 09:38 46.05378 8.79179 31144 ft 463 kts 118°
2026-04-30 09:38 46.03670 8.83154 29832 ft 468 kts 117°
2026-04-30 09:38 46.01985 8.87158 28870 ft 469 kts 117°
2026-04-30 09:39 46.00308 8.91188 28024 ft 468 kts 117°
2026-04-30 09:39 45.98640 8.95217 27055 ft 470 kts 117°
2026-04-30 09:39 45.96974 8.99245 26303 ft 467 kts 118°
2026-04-30 09:39 45.95322 9.03236 25594 ft 465 kts 118°
2026-04-30 09:40 45.93657 9.07254 25163 ft 464 kts 118°
2026-04-30 09:40 45.92031 9.11171 24936 ft 450 kts 118°
2026-04-30 09:40 45.90448 9.14980 24691 ft 438 kts 118°
2026-04-30 09:40 45.88903 9.18691 24458 ft 427 kts 118°
2026-04-30 09:41 45.87399 9.22302 24217 ft 417 kts 118°
2026-04-30 09:41 45.85926 9.25832 24032 ft 406 kts 118°
2026-04-30 09:41 45.84493 9.29261 23856 ft 395 kts 118°
2026-04-30 09:41 45.83098 9.32597 23673 ft 386 kts 118°
2026-04-30 09:42 45.81732 9.35858 23492 ft 378 kts 118°
2026-04-30 09:42 45.80381 9.39081 23100 ft 376 kts 118°
2026-04-30 09:42 45.79040 9.42276 22724 ft 374 kts 118°
2026-04-30 09:42 45.77701 9.45459 22361 ft 371 kts 118°
2026-04-30 09:43 45.76375 9.48612 21997 ft 369 kts 118°
2026-04-30 09:43 45.75054 9.51750 21633 ft 366 kts 118°
2026-04-30 09:43 45.73743 9.54856 21274 ft 363 kts 118°
2026-04-30 09:43 45.72442 9.57941 20909 ft 360 kts 118°
2026-04-30 09:44 45.71149 9.60998 20572 ft 358 kts 118°
2026-04-30 09:44 45.69864 9.64033 20190 ft 356 kts 118°
2026-04-30 09:44 45.68589 9.67039 19863 ft 352 kts 118°
2026-04-30 09:44 45.67164 9.69897 19452 ft 354 kts 133°
2026-04-30 09:45 45.65154 9.71908 19132 ft 354 kts 153°
2026-04-30 09:45 45.62948 9.73331 18799 ft 349 kts 154°
2026-04-30 09:45 45.60728 9.74752 18477 ft 344 kts 154°
2026-04-30 09:45 45.58561 9.76120 18317 ft 335 kts 155°
2026-04-30 09:46 45.56475 9.77426 18141 ft 328 kts 155°
2026-04-30 09:46 45.54409 9.78718 17886 ft 322 kts 154°
2026-04-30 09:46 45.52544 9.80532 17124 ft 321 kts 130°
2026-04-30 09:46 45.51109 9.82938 16524 ft 318 kts 128°
2026-04-30 09:47 45.49690 9.85292 15910 ft 316 kts 128°
2026-04-30 09:47 45.48266 9.87672 15310 ft 315 kts 128°
2026-04-30 09:47 45.46854 9.90043 14699 ft 313 kts 128°
2026-04-30 09:47 45.45451 9.92402 14139 ft 309 kts 128°
2026-04-30 09:48 45.44079 9.94711 13683 ft 303 kts 128°
2026-04-30 09:48 45.42729 9.96983 13387 ft 298 kts 128°
2026-04-30 09:48 45.41379 9.99253 13104 ft 295 kts 128°
2026-04-30 09:48 45.40073 10.01448 12802 ft 294 kts 128°
2026-04-30 09:49 45.38758 10.03655 12491 ft 292 kts 128°
2026-04-30 09:49 45.37454 10.05842 12194 ft 287 kts 128°
2026-04-30 09:49 45.36188 10.07965 12049 ft 276 kts 128°
2026-04-30 09:49 45.35176 10.10211 11809 ft 267 kts 105°
2026-04-30 09:50 45.34995 10.12768 11497 ft 258 kts 78°
2026-04-30 09:50 45.35632 10.15095 11215 ft 252 kts 53°
2026-04-30 09:50 45.36748 10.16973 10947 ft 248 kts 46°
2026-04-30 09:50 45.37920 10.18764 10661 ft 246 kts 42°
2026-04-30 09:51 45.39334 10.20092 10344 ft 244 kts 26°
2026-04-30 09:51 45.40854 10.21163 10057 ft 243 kts 26°
2026-04-30 09:51 45.42364 10.22213 9779 ft 241 kts 26°
2026-04-30 09:51 45.43873 10.23251 9504 ft 240 kts 25°
2026-04-30 09:52 45.45439 10.24130 9205 ft 240 kts
2026-04-30 09:52 45.47076 10.23990 8931 ft 244 kts 341°
2026-04-30 09:52 45.48525 10.22702 8699 ft 246 kts 313°
2026-04-30 09:52 45.49384 10.20611 8488 ft 247 kts 286°
2026-04-30 09:53 45.49509 10.18181 8255 ft 249 kts 260°
2026-04-30 09:53 45.48903 10.15887 8022 ft 249 kts 242°
2026-04-30 09:53 45.48080 10.13706 7777 ft 250 kts 242°
2026-04-30 09:53 45.47516 10.11406 7476 ft 245 kts 265°
2026-04-30 09:54 45.47549 10.09809 7306 ft 244 kts 280°
2026-04-30 09:54 45.48038 10.06651 7041 ft 245 kts 283°
2026-04-30 09:54 45.48304 10.05088 6891 ft 245 kts 284°
2026-04-30 09:54 45.48721 10.02736 6639 ft 244 kts 284°
2026-04-30 09:55 45.49143 10.00418 6268 ft 240 kts 285°
2026-04-30 09:55 45.49721 9.98254 5940 ft 231 kts 306°
2026-04-30 09:55 45.50915 9.96849 5669 ft 217 kts 337°
2026-04-30 09:55 45.52330 9.96426 5447 ft 202 kts 355°
2026-04-30 09:56 45.53677 9.96299 5243 ft 186 kts 356°
2026-04-30 09:56 45.54936 9.96200 5040 ft 181 kts 357°
2026-04-30 09:56 45.56194 9.96114 4863 ft 180 kts 357°
2026-04-30 09:56 45.57447 9.96035 4689 ft 180 kts 357°
2026-04-30 09:57 45.58694 9.95963 4509 ft 179 kts 358°
2026-04-30 09:57 45.59936 9.95894 4324 ft 179 kts 358°
2026-04-30 09:57 45.61159 9.95618 4078 ft 178 kts 334°
2026-04-30 09:57 45.62055 9.94452 3864 ft 175 kts 302°
2026-04-30 09:58 45.62609 9.92896 3658 ft 176 kts 290°
2026-04-30 09:58 45.62973 9.91241 3431 ft 173 kts 284°
2026-04-30 09:58 45.63274 9.89605 3198 ft 165 kts 284°
2026-04-30 09:58 45.63559 9.88060 2971 ft 156 kts 284°
2026-04-30 09:59 45.64105 9.85122 2614 ft 150 kts 284°
2026-04-30 09:59 45.64639 9.82241 2199 ft 151 kts 284°
2026-04-30 10:00 45.65181 9.79326 1791 ft 153 kts 285°
2026-04-30 10:00 45.65455 9.77859 1604 ft 153 kts 284°
2026-04-30 10:01 45.65983 9.74933 1172 ft 151 kts 285°
2026-04-30 10:01 45.66256 9.73490 986 ft 150 kts 284°
2026-04-30 10:01 45.66526 9.72064 808 ft 147 kts 285°
2026-04-30 10:02 45.66882 9.70159 790 ft 28 kts 285°
2026-04-30 10:02 45.66847 9.70067 790 ft 10 kts 172°
2026-04-30 10:02 45.66812 9.70085 790 ft 0 kts 155°
2026-04-30 10:02 45.66801 9.70092 790 ft 3 kts 155°
2026-04-30 10:03 45.66771 9.70108 790 ft 6 kts 172°
2026-04-30 10:03 45.66736 9.70073 790 ft 7 kts 249°
2026-04-30 10:03 45.66744 9.69989 790 ft 10 kts 285°
2026-04-30 10:03 45.66765 9.69880 790 ft 13 kts 285°
2026-04-30 10:04 45.66790 9.69746 790 ft 14 kts 283°
2026-04-30 10:04 45.66800 9.69683 790 ft 0 kts 283°
2026-04-30 10:04 45.66802 9.69668 790 ft 3 kts 271°
2026-04-30 10:05 45.66790 9.69648 790 ft 2 kts 204°
2026-04-30 10:05 45.66780 9.69644 790 ft 1 kts 197°
2026-04-30 10:05 45.66767 9.69639 790 ft 4 kts 194°
2026-04-30 10:05 45.66732 9.69626 790 ft 4 kts 194°
2026-04-30 10:06 45.66729 9.69625 790 ft 0 kts 194°
2026-04-30 10:06 45.66718 9.69621 790 ft 0 kts 195°